IGO5065 VECC-VABB

Flight info

Callsign IGO5065
Flight time 2h 25m
Altitude 38000
Route JJS2E JJS Q20 OPAKA EMRAK2A
Aircraft A320/M-SDE3FGHIRWY/LB1

Departure

Time 2026-05-04 14:01
Airport Netaji Subhash Chandra Bose International Airport (VECC)

Arrival

Time 2026-05-04 16:26
Airport Chhatrapati Shivaji Maharaj International Airport (VABB)
Time Latitude Longitude Altitude Speed Heading
2026-05-04 13:18 22.64388 88.44070 29 ft 0 kts 277°
2026-05-04 13:34 22.64387 88.44078 29 ft 2 kts 275°
2026-05-04 13:34 22.64385 88.44095 29 ft 2 kts 275°
2026-05-04 13:34 22.64384 88.44113 29 ft 2 kts 273°
2026-05-04 13:34 22.64383 88.44131 29 ft 2 kts 269°
2026-05-04 13:35 22.64384 88.44149 29 ft 2 kts 257°
2026-05-04 13:35 22.64402 88.44171 29 ft 1 kts 187°
2026-05-04 13:35 22.64404 88.44172 29 ft 0 kts 187°
2026-05-04 13:42 22.64356 88.44165 29 ft 12 kts 187°
2026-05-04 13:42 22.64277 88.44154 29 ft 11 kts 187°
2026-05-04 13:42 22.64202 88.44144 28 ft 11 kts 187°
2026-05-04 13:42 22.64132 88.44135 29 ft 10 kts 187°
2026-05-04 13:43 22.64067 88.44127 29 ft 9 kts 186°
2026-05-04 13:43 22.64019 88.44150 28 ft 7 kts 121°
2026-05-04 13:43 22.64010 88.44201 28 ft 7 kts 97°
2026-05-04 13:43 22.64005 88.44242 29 ft 0 kts 97°
2026-05-04 13:47 22.64005 88.44245 28 ft 0 kts 97°
2026-05-04 13:47 22.64005 88.44249 28 ft 1 kts 97°
2026-05-04 13:48 22.64007 88.44313 29 ft 12 kts 70°
2026-05-04 13:48 22.64029 88.44372 29 ft 8 kts 62°
2026-05-04 13:48 22.64068 88.44398 29 ft 6 kts 28°
2026-05-04 13:48 22.64106 88.44420 30 ft 6 kts 28°
2026-05-04 13:49 22.64141 88.44435 30 ft 5 kts 359°
2026-05-04 13:49 22.64203 88.44444 30 ft 15 kts 29°
2026-05-04 13:49 22.64228 88.44493 29 ft 0 kts 66°
2026-05-04 13:51 22.64229 88.44495 29 ft 1 kts 66°
2026-05-04 13:51 22.64234 88.44509 21 ft 2 kts 66°
2026-05-04 13:52 22.64248 88.44543 30 ft 0 kts 66°
2026-05-04 13:53 22.64248 88.44544 29 ft 0 kts 66°
2026-05-04 13:54 22.64326 88.44642 28 ft 0 kts 330°
2026-05-04 13:54 22.64332 88.44641 28 ft 6 kts 348°
2026-05-04 13:54 22.64608 88.45362 30 ft 5 kts 166°
2026-05-04 13:55 22.64608 88.45363 28 ft 0 kts 169°
2026-05-04 13:55 22.64586 88.45355 29 ft 0 kts 215°
2026-05-04 13:56 22.64589 88.45357 28 ft 2 kts 215°
2026-05-04 13:57 22.64594 88.45348 26 ft 7 kts 272°
2026-05-04 13:57 22.64588 88.45325 27 ft 0 kts 247°
2026-05-04 13:58 22.64550 88.45325 29 ft 6 kts 30°
2026-05-04 13:58 22.64577 88.45239 29 ft 7 kts 278°
2026-05-04 13:58 22.64579 88.45221 29 ft 0 kts 278°
2026-05-04 13:59 22.64579 88.45218 29 ft 0 kts 278°
2026-05-04 13:59 22.64587 88.45161 29 ft 30 kts 276°
2026-05-04 13:59 22.64619 88.44818 27 ft 19 kts 276°
2026-05-04 14:00 22.64641 88.44692 27 ft 10 kts 311°
2026-05-04 14:00 22.64802 88.44707 26 ft 41 kts
2026-05-04 14:00 22.65317 88.44768 29 ft 105 kts
2026-05-04 14:01 22.66202 88.44879 31 ft 150 kts 359°
2026-05-04 14:01 22.67298 88.45021 374 ft 167 kts 11°
2026-05-04 14:01 22.69989 88.45375 925 ft 221 kts
2026-05-04 14:02 22.71554 88.45560 1534 ft 234 kts
2026-05-04 14:02 22.73260 88.45763 1973 ft 259 kts
2026-05-04 14:02 22.75118 88.45989 2596 ft 275 kts
2026-05-04 14:02 22.77026 88.46220 3521 ft 277 kts
2026-05-04 14:03 22.78953 88.46380 4480 ft 280 kts 357°
2026-05-04 14:03 22.80830 88.45826 5360 ft 283 kts 332°
2026-05-04 14:03 22.82356 88.44487 6247 ft 285 kts 308°
2026-05-04 14:03 22.83273 88.42624 7082 ft 286 kts 286°
2026-05-04 14:04 22.84244 88.38424 8815 ft 289 kts 284°
2026-05-04 14:04 22.84732 88.36301 9654 ft 292 kts 284°
2026-05-04 14:04 22.85209 88.34117 10131 ft 308 kts 279°
2026-05-04 14:05 22.85833 88.29265 11010 ft 334 kts 278°
2026-05-04 14:05 22.86156 88.26758 11694 ft 337 kts 278°
2026-05-04 14:05 22.86479 88.24265 12382 ft 340 kts 278°
2026-05-04 14:06 22.86814 88.21678 13084 ft 343 kts 278°
2026-05-04 14:06 22.87142 88.19134 13752 ft 346 kts 278°
2026-05-04 14:06 22.87476 88.16538 14352 ft 349 kts 277°
2026-05-04 14:06 22.87808 88.13924 14956 ft 351 kts 277°
2026-05-04 14:07 22.88142 88.11285 15553 ft 354 kts 277°
2026-05-04 14:07 22.88480 88.08637 16152 ft 356 kts 277°
2026-05-04 14:07 22.88820 88.05971 16759 ft 359 kts 277°
2026-05-04 14:07 22.89162 88.03280 17363 ft 361 kts 277°
2026-05-04 14:08 22.89504 88.00573 17966 ft 364 kts 277°
2026-05-04 14:08 22.89850 87.97845 18501 ft 366 kts 277°
2026-05-04 14:08 22.90186 87.95137 18996 ft 368 kts 276°
2026-05-04 14:08 22.90439 87.92363 19495 ft 371 kts 274°
2026-05-04 14:09 22.90761 87.86754 20509 ft 375 kts 272°
2026-05-04 14:09 22.90895 87.83922 21007 ft 377 kts 272°
2026-05-04 14:10 22.91188 87.78204 21964 ft 382 kts 272°
2026-05-04 14:10 22.91351 87.75361 22428 ft 385 kts 272°
2026-05-04 14:10 22.91529 87.72456 22903 ft 387 kts 272°
2026-05-04 14:10 22.91710 87.69530 23370 ft 390 kts 272°
2026-05-04 14:11 22.91892 87.66591 23759 ft 392 kts 272°
2026-05-04 14:11 22.92250 87.60669 24553 ft 395 kts 272°
2026-05-04 14:11 22.92424 87.57694 24951 ft 396 kts 271°
2026-05-04 14:12 22.92595 87.54708 25342 ft 397 kts 271°
2026-05-04 14:12 22.92763 87.51754 25730 ft 399 kts 271°
2026-05-04 14:12 22.93113 87.45726 26513 ft 401 kts 271°
2026-05-04 14:13 22.93291 87.42702 26886 ft 403 kts 271°
2026-05-04 14:13 22.93468 87.39665 27241 ft 404 kts 271°
2026-05-04 14:13 22.93647 87.36615 27620 ft 406 kts 271°
2026-05-04 14:13 22.93825 87.33554 27977 ft 407 kts 271°
2026-05-04 14:14 22.94002 87.30484 28338 ft 409 kts 271°
2026-05-04 14:14 22.94356 87.24350 29092 ft 412 kts 271°
2026-05-04 14:14 22.94571 87.21232 29465 ft 414 kts 272°
2026-05-04 14:15 22.95051 87.14972 30166 ft 418 kts 272°
2026-05-04 14:15 22.95529 87.08665 30764 ft 421 kts 272°
2026-05-04 14:16 22.95986 87.02311 31449 ft 422 kts 272°
2026-05-04 14:16 22.96212 86.99143 31907 ft 420 kts 272°
2026-05-04 14:17 22.96658 86.92890 32809 ft 416 kts 272°
2026-05-04 14:17 22.96880 86.89766 33273 ft 415 kts 272°
2026-05-04 14:17 22.97323 86.83557 34139 ft 411 kts 272°
2026-05-04 14:18 22.97541 86.80467 34490 ft 410 kts 272°
2026-05-04 14:18 22.97969 86.74297 35146 ft 410 kts 272°
2026-05-04 14:19 22.98388 86.68179 35776 ft 409 kts 272°
2026-05-04 14:19 22.98600 86.65103 36086 ft 409 kts 272°
2026-05-04 14:19 22.98812 86.62031 36388 ft 409 kts 272°
2026-05-04 14:19 22.99027 86.58953 36681 ft 408 kts 272°
2026-05-04 14:20 22.99238 86.55886 36987 ft 408 kts 272°
2026-05-04 14:20 22.99242 86.52823 37277 ft 405 kts 263°
2026-05-04 14:20 22.98722 86.49833 37553 ft 404 kts 252°
2026-05-04 14:21 22.96268 86.44370 37874 ft 405 kts 240°
2026-05-04 14:21 22.94830 86.41789 37879 ft 405 kts 240°
2026-05-04 14:21 22.91932 86.36559 37883 ft 404 kts 240°
2026-05-04 14:22 22.89041 86.31337 37880 ft 404 kts 240°
2026-05-04 14:22 22.86151 86.26118 37887 ft 403 kts 240°
2026-05-04 14:23 22.81869 86.18322 37896 ft 402 kts 244°
2026-05-04 14:24 22.80074 86.12603 37899 ft 402 kts 254°
2026-05-04 14:24 22.78545 86.06775 37900 ft 403 kts 254°
2026-05-04 14:25 22.76992 86.00946 37905 ft 403 kts 253°
2026-05-04 14:25 22.74677 85.92225 37909 ft 404 kts 253°
2026-05-04 14:26 22.73128 85.86374 37917 ft 404 kts 254°
2026-05-04 14:26 22.71578 85.80520 37919 ft 405 kts 254°
2026-05-04 14:27 22.70025 85.74661 37924 ft 405 kts 253°
2026-05-04 14:27 22.68474 85.68830 37924 ft 405 kts 253°
2026-05-04 14:28 22.66913 85.62972 37928 ft 405 kts 253°
2026-05-04 14:28 22.65353 85.57104 37929 ft 406 kts 254°
2026-05-04 14:29 22.62217 85.45368 37927 ft 406 kts 253°
2026-05-04 14:30 22.60655 85.39538 37929 ft 406 kts 253°
2026-05-04 14:31 22.58293 85.30743 37930 ft 406 kts 253°
2026-05-04 14:32 22.55142 85.19052 37926 ft 406 kts 253°
2026-05-04 14:32 22.53554 85.13189 37929 ft 406 kts 253°
2026-05-04 14:33 22.51963 85.07329 37922 ft 406 kts 253°
2026-05-04 14:33 22.50381 85.01477 37928 ft 406 kts 253°
2026-05-04 14:34 22.48808 84.95660 37923 ft 406 kts 253°
2026-05-04 14:34 22.47214 84.89802 37921 ft 406 kts 253°
2026-05-04 14:35 22.45622 84.83958 37923 ft 406 kts 253°
2026-05-04 14:35 22.44028 84.78114 37915 ft 406 kts 253°
2026-05-04 14:36 22.42441 84.72297 37910 ft 406 kts 253°
2026-05-04 14:36 22.40847 84.66440 37908 ft 406 kts 253°
2026-05-04 14:37 22.39240 84.60584 37902 ft 407 kts 253°
2026-05-04 14:37 22.37630 84.54724 37899 ft 407 kts 253°
2026-05-04 14:38 22.36028 84.48893 37897 ft 408 kts 253°
2026-05-04 14:38 22.34413 84.43022 37895 ft 408 kts 253°
2026-05-04 14:39 22.32791 84.37135 37887 ft 409 kts 253°
2026-05-04 14:39 22.31170 84.31246 37884 ft 409 kts 253°
2026-05-04 14:40 22.28737 84.22444 37877 ft 410 kts 253°
2026-05-04 14:40 22.27100 84.16538 37877 ft 411 kts 253°
2026-05-04 14:41 22.25458 84.10631 37872 ft 411 kts 253°
2026-05-04 14:42 22.22182 83.98828 37876 ft 412 kts 253°
2026-05-04 14:42 22.20531 83.92904 37867 ft 413 kts 253°
2026-05-04 14:43 22.18882 83.86970 37874 ft 413 kts 253°
2026-05-04 14:43 22.17225 83.81029 37875 ft 413 kts 253°
2026-05-04 14:44 22.15553 83.75091 37873 ft 413 kts 253°
2026-05-04 14:44 22.13898 83.69195 37869 ft 413 kts 253°
2026-05-04 14:45 22.12234 83.63257 37881 ft 414 kts 253°
2026-05-04 14:45 22.10573 83.57314 37871 ft 414 kts 253°
2026-05-04 14:46 22.08899 83.51374 37872 ft 414 kts 253°
2026-05-04 14:46 22.07236 83.45471 37871 ft 414 kts 253°
2026-05-04 14:47 22.05632 83.39506 37858 ft 414 kts 254°
2026-05-04 14:47 22.04075 83.33528 37865 ft 414 kts 254°
2026-05-04 14:48 22.02504 83.27550 37860 ft 415 kts 254°
2026-05-04 14:48 22.00923 83.21614 37847 ft 415 kts 253°
2026-05-04 14:49 21.99329 83.15636 37850 ft 415 kts 253°
2026-05-04 14:49 21.97737 83.09662 37853 ft 415 kts 253°
2026-05-04 14:50 21.96137 83.03680 37853 ft 415 kts 253°
2026-05-04 14:50 21.94535 82.97700 37838 ft 415 kts 253°
2026-05-04 14:51 21.92942 82.91765 37850 ft 415 kts 253°
2026-05-04 14:51 21.91342 82.85786 37849 ft 415 kts 253°
2026-05-04 14:52 21.89745 82.79810 37849 ft 415 kts 253°
2026-05-04 14:52 21.88139 82.73835 37843 ft 415 kts 253°
2026-05-04 14:53 21.86537 82.67912 37840 ft 415 kts 253°
2026-05-04 14:53 21.84924 82.61946 37835 ft 415 kts 253°
2026-05-04 14:54 21.83310 82.55981 37827 ft 415 kts 253°
2026-05-04 14:54 21.81696 82.50023 37822 ft 415 kts 253°
2026-05-04 14:55 21.80091 82.44099 37810 ft 415 kts 253°
2026-05-04 14:55 21.78474 82.38143 37813 ft 415 kts 253°
2026-05-04 14:56 21.76859 82.32190 37810 ft 415 kts 253°
2026-05-04 14:56 21.75237 82.26239 37799 ft 415 kts 253°
2026-05-04 14:57 21.73609 82.20289 37791 ft 415 kts 253°
2026-05-04 14:57 21.71990 82.14376 37808 ft 415 kts 253°
2026-05-04 14:58 21.70364 82.08417 37791 ft 415 kts 253°
2026-05-04 14:58 21.68730 82.02457 37792 ft 416 kts 253°
2026-05-04 14:59 21.67085 81.96493 37794 ft 416 kts 253°
2026-05-04 15:00 21.64625 81.87595 37795 ft 416 kts 253°
2026-05-04 15:00 21.62979 81.81634 37786 ft 416 kts 253°
2026-05-04 15:01 21.60510 81.72701 37789 ft 415 kts 253°
2026-05-04 15:01 21.58875 81.66791 37794 ft 415 kts 253°
2026-05-04 15:02 21.57226 81.60852 37788 ft 415 kts 253°
2026-05-04 15:02 21.55576 81.54917 37790 ft 414 kts 253°
2026-05-04 15:03 21.53921 81.48994 37800 ft 414 kts 253°
2026-05-04 15:03 21.52282 81.43111 37802 ft 413 kts 253°
2026-05-04 15:04 21.50628 81.37202 37809 ft 413 kts 253°
2026-05-04 15:04 21.48975 81.31302 37803 ft 413 kts 253°
2026-05-04 15:05 21.47323 81.25403 37804 ft 412 kts 253°
2026-05-04 15:05 21.45675 81.19551 37803 ft 412 kts 253°
2026-05-04 15:06 21.44021 81.13667 37806 ft 412 kts 253°
2026-05-04 15:07 21.41541 81.04839 37802 ft 412 kts 253°
2026-05-04 15:07 21.39886 80.98958 37803 ft 412 kts 253°
2026-05-04 15:08 21.38233 80.93120 37797 ft 412 kts 253°
2026-05-04 15:08 21.36563 80.87243 37798 ft 412 kts 253°
2026-05-04 15:09 21.34901 80.81371 37793 ft 412 kts 253°
2026-05-04 15:09 21.33231 80.75493 37791 ft 412 kts 253°
2026-05-04 15:10 21.30740 80.66728 37787 ft 412 kts 253°
2026-05-04 15:11 21.28234 80.57919 37778 ft 412 kts 253°
2026-05-04 15:11 21.26557 80.52053 37776 ft 411 kts 253°
2026-05-04 15:12 21.24882 80.46227 37772 ft 411 kts 253°
2026-05-04 15:12 21.23206 80.40370 37775 ft 411 kts 253°
2026-05-04 15:13 21.21525 80.34506 37775 ft 412 kts 253°
2026-05-04 15:13 21.19837 80.28645 37758 ft 411 kts 253°
2026-05-04 15:14 21.18152 80.22787 37756 ft 411 kts 253°
2026-05-04 15:14 21.16484 80.16970 37759 ft 411 kts 253°
2026-05-04 15:15 21.14795 80.11115 37758 ft 411 kts 253°
2026-05-04 15:15 21.13105 80.05260 37760 ft 411 kts 253°
2026-05-04 15:16 21.10583 79.96519 37752 ft 412 kts 253°
2026-05-04 15:17 21.08039 79.87735 37752 ft 412 kts 253°
2026-05-04 15:17 21.05470 79.78950 37754 ft 412 kts 253°
2026-05-04 15:18 21.03778 79.73123 37766 ft 413 kts 253°
2026-05-04 15:19 21.01210 79.64327 37758 ft 413 kts 253°
2026-05-04 15:19 20.98632 79.55527 37763 ft 413 kts 253°
2026-05-04 15:20 20.96915 79.49665 37753 ft 413 kts 253°
2026-05-04 15:20 20.95214 79.43846 37768 ft 413 kts 253°
2026-05-04 15:21 20.93495 79.37975 37759 ft 413 kts 253°
2026-05-04 15:22 20.90906 79.29192 37770 ft 413 kts 253°
2026-05-04 15:22 20.88445 79.20403 37770 ft 413 kts 255°
2026-05-04 15:23 20.86901 79.14484 37760 ft 413 kts 255°
2026-05-04 15:23 20.85341 79.08570 37757 ft 413 kts 255°
2026-05-04 15:24 20.82170 78.96760 37771 ft 413 kts 255°
2026-05-04 15:25 20.80586 78.90900 37772 ft 413 kts 255°
2026-05-04 15:26 20.78186 78.82048 37757 ft 413 kts 254°
2026-05-04 15:26 20.75782 78.73198 37758 ft 414 kts 255°
2026-05-04 15:27 20.73395 78.64388 37758 ft 414 kts 255°
2026-05-04 15:28 20.70984 78.55534 37770 ft 414 kts 255°
2026-05-04 15:29 20.68573 78.46681 37763 ft 414 kts 255°
2026-05-04 15:30 20.62925 78.26058 37764 ft 415 kts 255°
2026-05-04 15:31 20.60501 78.17231 37775 ft 415 kts 255°
2026-05-04 15:32 20.56423 78.02465 37773 ft 415 kts 255°
2026-05-04 15:34 20.52443 77.87723 37780 ft 415 kts 255°
2026-05-04 15:34 20.50085 77.78838 37788 ft 415 kts 255°
2026-05-04 15:35 20.47743 77.70004 37788 ft 415 kts 255°
2026-05-04 15:36 20.45384 77.61133 37790 ft 414 kts 255°
2026-05-04 15:36 20.43797 77.55226 37793 ft 414 kts 255°
2026-05-04 15:37 20.42212 77.49320 37803 ft 414 kts 255°
2026-05-04 15:37 20.40636 77.43457 37799 ft 414 kts 255°
2026-05-04 15:38 20.39061 77.37559 37803 ft 414 kts 255°
2026-05-04 15:38 20.37479 77.31655 37800 ft 414 kts 255°
2026-05-04 15:39 20.35891 77.25758 37807 ft 414 kts 255°
2026-05-04 15:40 20.33514 77.16958 37806 ft 414 kts 255°
2026-05-04 15:40 20.31928 77.11061 37807 ft 414 kts 255°
2026-05-04 15:41 20.30337 77.05172 37810 ft 414 kts 255°
2026-05-04 15:41 20.29006 77.00278 37808 ft 414 kts 255°
2026-05-04 15:42 20.27149 76.93438 37815 ft 414 kts 255°
2026-05-04 15:42 20.25554 76.87551 37819 ft 414 kts 255°
2026-05-04 15:43 20.23958 76.81669 37828 ft 414 kts 255°
2026-05-04 15:43 20.22620 76.76782 37820 ft 414 kts 255°
2026-05-04 15:44 20.20753 76.69946 37819 ft 414 kts 255°
2026-05-04 15:44 20.19151 76.64068 37825 ft 414 kts 255°
2026-05-04 15:45 20.17548 76.58189 37825 ft 414 kts 255°
2026-05-04 15:45 20.16209 76.53305 37828 ft 413 kts 255°
2026-05-04 15:46 20.14335 76.46484 37832 ft 413 kts 255°
2026-05-04 15:46 20.12983 76.41566 37833 ft 413 kts 255°
2026-05-04 15:47 20.11377 76.35735 37840 ft 414 kts 255°
2026-05-04 15:47 20.09764 76.29864 37842 ft 414 kts 255°
2026-05-04 15:48 20.08148 76.23988 37843 ft 414 kts 255°
2026-05-04 15:48 20.05702 76.15181 37841 ft 414 kts 255°
2026-05-04 15:49 20.04079 76.09352 37833 ft 414 kts 255°
2026-05-04 15:49 20.02453 76.03476 37842 ft 414 kts 255°
2026-05-04 15:50 20.00822 75.97602 37846 ft 414 kts 255°
2026-05-04 15:50 19.99196 75.91718 37853 ft 415 kts 255°
2026-05-04 15:51 19.97571 75.85879 37854 ft 415 kts 255°
2026-05-04 15:51 19.95934 75.80001 37852 ft 415 kts 255°
2026-05-04 15:52 19.94294 75.74120 37860 ft 415 kts 255°
2026-05-04 15:52 19.92652 75.68243 37862 ft 415 kts 255°
2026-05-04 15:53 19.91011 75.62362 37874 ft 415 kts 255°
2026-05-04 15:53 19.89380 75.56518 37874 ft 415 kts 255°
2026-05-04 15:54 19.87729 75.50638 37882 ft 415 kts 255°
2026-05-04 15:54 19.86076 75.44763 37886 ft 415 kts 255°
2026-05-04 15:55 19.84425 75.38885 37884 ft 415 kts 255°
2026-05-04 15:55 19.82788 75.33041 37880 ft 416 kts 255°
2026-05-04 15:56 19.81132 75.27165 37877 ft 416 kts 255°
2026-05-04 15:56 19.79476 75.21280 37877 ft 416 kts 255°
2026-05-04 15:57 19.78645 75.18319 37558 ft 420 kts 255°
2026-05-04 15:57 19.77813 75.15364 37148 ft 417 kts 255°
2026-05-04 15:57 19.76980 75.12426 36737 ft 413 kts 255°
2026-05-04 15:57 19.76164 75.09560 36329 ft 410 kts 255°
2026-05-04 15:58 19.75341 75.06669 35919 ft 408 kts 255°
2026-05-04 15:58 19.74524 75.03794 35497 ft 405 kts 255°
2026-05-04 15:58 19.73710 75.00942 35079 ft 403 kts 255°
2026-05-04 15:58 19.72900 74.98102 34645 ft 401 kts 255°
2026-05-04 15:59 19.72092 74.95271 34203 ft 400 kts 255°
2026-05-04 15:59 19.71290 74.92458 33752 ft 398 kts 255°
2026-05-04 15:59 19.70493 74.89655 33276 ft 396 kts 255°
2026-05-04 15:59 19.69710 74.86895 32839 ft 394 kts 255°
2026-05-04 16:00 19.68921 74.84126 32410 ft 391 kts 255°
2026-05-04 16:00 19.68136 74.81368 31968 ft 389 kts 255°
2026-05-04 16:00 19.67357 74.78631 31542 ft 388 kts 255°
2026-05-04 16:00 19.66578 74.75895 31128 ft 386 kts 255°
2026-05-04 16:01 19.65801 74.73173 30706 ft 385 kts 255°
2026-05-04 16:01 19.65025 74.70463 30300 ft 383 kts 255°
2026-05-04 16:01 19.64249 74.67758 29893 ft 383 kts 255°
2026-05-04 16:01 19.63489 74.65101 29474 ft 380 kts 255°
2026-05-04 16:02 19.62724 74.62432 29086 ft 377 kts 255°
2026-05-04 16:02 19.61962 74.59778 28703 ft 375 kts 255°
2026-05-04 16:02 19.60453 74.54522 27896 ft 370 kts 255°
2026-05-04 16:03 19.59723 74.51924 27495 ft 367 kts 256°
2026-05-04 16:03 19.59016 74.49331 27092 ft 365 kts 256°
2026-05-04 16:03 19.58326 74.46749 26686 ft 363 kts 256°
2026-05-04 16:03 19.57649 74.44210 26272 ft 362 kts 256°
2026-05-04 16:04 19.56965 74.41656 25860 ft 360 kts 256°
2026-05-04 16:04 19.55589 74.36556 24985 ft 359 kts 255°
2026-05-04 16:04 19.54899 74.34020 24538 ft 358 kts 255°
2026-05-04 16:05 19.54207 74.31486 24090 ft 358 kts 255°
2026-05-04 16:05 19.53512 74.28941 23630 ft 358 kts 255°
2026-05-04 16:05 19.52126 74.23874 22658 ft 356 kts 255°
2026-05-04 16:06 19.51450 74.21400 22214 ft 353 kts 255°
2026-05-04 16:06 19.49638 74.14767 21016 ft 349 kts 255°
2026-05-04 16:07 19.48740 74.11502 20425 ft 347 kts 255°
2026-05-04 16:07 19.46736 74.04171 19088 ft 344 kts 255°
2026-05-04 16:08 19.46069 74.01734 18641 ft 343 kts 255°
2026-05-04 16:08 19.44085 73.94513 17266 ft 339 kts 256°
2026-05-04 16:09 19.42774 73.89743 16399 ft 335 kts 255°
2026-05-04 16:09 19.41064 73.85206 15724 ft 328 kts 243°
2026-05-04 16:10 19.38908 73.81045 15120 ft 320 kts 243°
2026-05-04 16:11 19.35766 73.74915 14089 ft 315 kts 243°
2026-05-04 16:11 19.34724 73.72884 13763 ft 313 kts 242°
2026-05-04 16:12 19.31627 73.66864 12652 ft 308 kts 242°
2026-05-04 16:12 19.28556 73.60928 11546 ft 305 kts 242°
2026-05-04 16:13 19.26542 73.57027 10835 ft 303 kts 242°
2026-05-04 16:13 19.24525 73.53122 10141 ft 301 kts 242°
2026-05-04 16:14 19.22544 73.49302 9770 ft 287 kts 242°
2026-05-04 16:14 19.20812 73.45612 9388 ft 275 kts 248°
2026-05-04 16:15 19.18803 73.40035 8548 ft 269 kts 250°
2026-05-04 16:16 19.17498 73.36355 7998 ft 264 kts 250°
2026-05-04 16:16 19.15555 73.31008 6556 ft 255 kts 250°
2026-05-04 16:17 19.14291 73.27559 5710 ft 247 kts 250°
2026-05-04 16:18 19.12545 73.22767 4805 ft 218 kts 250°
2026-05-04 16:18 19.12017 73.21321 4754 ft 208 kts 250°
2026-05-04 16:19 19.10495 73.17169 4645 ft 192 kts 250°
2026-05-04 16:19 19.09550 73.14583 4454 ft 189 kts 250°
2026-05-04 16:20 19.09183 73.10493 4038 ft 187 kts 269°
2026-05-04 16:20 19.09149 73.07763 3572 ft 183 kts 268°
2026-05-04 16:21 19.09102 73.04039 2941 ft 152 kts 267°
2026-05-04 16:22 19.09074 73.01929 2564 ft 141 kts 266°
2026-05-04 16:22 19.09034 72.98848 2030 ft 138 kts 266°
2026-05-04 16:23 19.08993 72.95806 1497 ft 139 kts 265°
2026-05-04 16:24 19.08939 72.91738 800 ft 139 kts 264°
2026-05-04 16:25 19.08912 72.89704 469 ft 136 kts 267°
2026-05-04 16:26 19.08861 72.86064 47 ft 72 kts 269°
2026-05-04 16:26 19.08943 72.85510 48 ft 10 kts 295°
2026-05-04 16:27 19.09025 72.85566 49 ft 13 kts 89°
2026-05-04 16:28 19.09026 72.85615 49 ft 0 kts 89°
2026-05-04 16:28 19.09026 72.85629 49 ft 5 kts 89°
2026-05-04 16:29 19.09032 72.85964 49 ft 13 kts 89°
2026-05-04 16:30 19.09037 72.86287 49 ft 15 kts 83°
2026-05-04 16:31 19.09144 72.86435 48 ft 14 kts 48°
2026-05-04 16:31 19.09361 72.86698 49 ft 18 kts 49°
2026-05-04 16:32 19.09504 72.86869 49 ft 9 kts 49°
2026-05-04 16:33 19.09557 72.86995 46 ft 7 kts 123°
2026-05-04 16:33 19.09609 72.87096 49 ft 11 kts 44°
2026-05-04 16:34 19.09611 72.87169 47 ft 2 kts 139°
2026-05-04 16:34 19.09598 72.87181 49 ft 0 kts 138°
2026-05-04 16:35 19.09586 72.87192 49 ft 0 kts 138°